Luke Air Force Base, AZ

10:12 PM MST on August 25, 2016 (GMT -0700)
Luke Air Force Base

Weather History for KLUF - February, 2014

Change the Weather History Date:

Friday, February 21, 2014

  Actual Average Record
Temperature  
Mean Temperature 60 °F -  
Max Temperature 74 °F 73 °F 87 °F (1977)
Min Temperature 45 °F 41 °F 25 °F (1953)
Degree Days  
Heating Degree Days 6    
Growing Degree Days 10 (Base 50)    
Moisture  
Dew Point 19 °F    
Average Humidity 23    
Maximum Humidity 39    
Minimum Humidity 9    
Precipitation  
Precipitation 0.00 in - - ()
Sea Level Pressure  
Sea Level Pressure 29.95 in    
Wind  
Wind Speed 5 mph (NNW)    
Max Wind Speed 9 mph    
Max Gust Speed -    
Visibility 10 miles    
Events      
Averages and records for this station are not official NWS values.
T = Trace of Precipitation, MM = Missing Value Source: NWS Daily Summary

Daily Weather History Graph

Daily Weather History Graph

Search for Another Location

Airport or City:

Trip Planner

Search our weather history database for the weather conditions in past years. The results will help you decide how hot, cold, wet, or windy it might be!

Date:

Astronomy

Feb. 21, 2014 Rise Set
Actual Time 7:07 AM MST 6:19 PM MST
Civil Twilight 6:41 AM MST 6:44 PM MST
Nautical Twilight 6:12 AM MST 7:13 PM MST
Astronomical Twilight 5:44 AM MST 7:42 PM MST
Moon No Moon Rise 10:53 AM MST (2/21)
Length of Visible Light 12h 02m
Length of Day
11h 12m
Waning Gibbous, 60% of the Moon is Illuminated
Feb 21
Waning Gibbous
Feb 22
Last Quarter
Mar 1
New
Mar 8
First Quarter
Mar 16
Full

Hourly Weather History & Observations

Time (MST) Temp. Windchill Dew Point Humidity Pressure Visibility Wind Dir Wind Speed Gust Speed Precip Events Conditions
12:58 AM 55.0 °F - 16.3 °F 22% 29.99 in 10.0 mi NNW 4.6 mph - N/A   Clear
1:58 AM 49.8 °F - 20.1 °F 31% 30.00 in 10.0 mi NNE 4.6 mph - N/A   Clear
2:58 AM 49.8 °F - 19.4 °F 30% 29.99 in 10.0 mi NNE 3.5 mph - N/A   Clear
3:58 AM 48.2 °F - 19.4 °F 32% 29.99 in 10.0 mi North 4.6 mph - N/A   Clear
4:58 AM 47.1 °F - 18.0 °F 31% 29.99 in 10.0 mi North 3.5 mph - N/A   Clear
5:58 AM 45.7 °F 41.0 °F 21.0 °F 38% 30.00 in 10.0 mi NNW 9.2 mph - N/A   Mostly Cloudy
6:58 AM 45.5 °F - 20.8 °F 38% 30.02 in 10.0 mi North 2.3 mph - N/A   Scattered Clouds
7:58 AM 47.5 °F - 23.7 °F 39% 30.04 in 10.0 mi NNW 3.5 mph - N/A   Mostly Cloudy
8:58 AM 53.6 °F - 23.4 °F 31% 30.04 in 10.0 mi NW 3.5 mph - N/A   Overcast
9:58 AM 58.8 °F - 18.1 °F 21% 30.04 in 10.0 mi North 3.5 mph - N/A   Mostly Cloudy
10:58 AM 63.3 °F - 18.1 °F 18% 30.03 in 10.0 mi ENE 4.6 mph - N/A   Mostly Cloudy
11:58 AM 66.9 °F - 16.9 °F 15% 30.01 in 10.0 mi ESE 4.6 mph - N/A   Mostly Cloudy
12:58 PM 70.2 °F - 15.6 °F 12% 29.97 in 10.0 mi ESE 3.5 mph - N/A   Mostly Cloudy
1:58 PM 73.4 °F - 16.2 °F 11% 29.93 in 10.0 mi SSE 5.8 mph - N/A   Mostly Cloudy
2:58 PM 74.3 °F - 12.9 °F 10% 29.91 in 10.0 mi Variable 4.6 mph - N/A   Mostly Cloudy
3:58 PM 74.8 °F - 12.7 °F 9% 29.89 in 10.0 mi South 5.8 mph - N/A   Mostly Cloudy
4:58 PM 74.3 °F - 10.2 °F 9% 29.87 in 10.0 mi SW 5.8 mph - N/A   Clear
5:58 PM 72.9 °F - 14.0 °F 11% 29.87 in 10.0 mi SSW 5.8 mph - N/A   Partly Cloudy
6:58 PM 68.0 °F - 15.6 °F 13% 29.87 in 10.0 mi SSW 4.6 mph - N/A   Clear
7:58 PM 65.8 °F - 17.2 °F 15% 29.88 in 10.0 mi South 4.6 mph - N/A   Clear
8:58 PM 58.3 °F - 26.4 °F 30% 29.88 in 10.0 mi West 5.8 mph - N/A   Clear
9:58 PM 55.4 °F - 24.4 °F 30% 29.89 in 10.0 mi NNW 8.1 mph - N/A   Clear
10:58 PM 54.5 °F - 23.0 °F 29% 29.90 in 10.0 mi NNW 6.9 mph - N/A   Clear
11:58 PM 51.4 °F - 23.0 °F 33% 29.90 in 10.0 mi NNW 5.8 mph - N/A   Clear